"Pseudo-MPEC" for C14FJD2

Created 2019 Oct 15 22:07:05 UT using Find_Orb

Click here for an explanation of pseudo-MPECs

 
 Astrometry: 
     C14FJD2  C2019 10 06.47697 07 58 40.21 +50 10 36.5    ~A6CM 21.2 GVNEOCPG96
     C14FJD2  C2019 10 06.48476 07 58 42.49 +50 10 40.7    ~A6CM       VNEOCPG96
     C14FJD2  C2019 10 06.48861 07 58 43.56 +50 10 43.1    ~A6CM 21.2 GVNEOCPG96
     C14FJD2  C2019 10 06.49248 07 58 44.69 +50 10 45.7    ~A6CM 20.9 GVNEOCPG96
     C14FJD2  C2019 10 06.50416 07 58 48.12 +50 10 51.5    ~A6Cb 21.2 GVNEOCPI52
     C14FJD2  C2019 10 06.50606 07 58 48.72 +50 10 53.7    ~A6Cb 21.3 GVNEOCPI52
     C14FJD2  C2019 10 06.50796 07 58 49.22 +50 10 54.1    ~A6Cb 21.8 GVNEOCPI52
     C14FJD2  C2019 10 06.50986 07 58 49.72 +50 10 55.4    ~A6Cb 23.0 GVNEOCPI52
     C14FJD2  C2019 10 08.47610 08 08 31.73 +50 28 20.6    ~A8C7 21.5 GVNEOCPG96
     C14FJD2  C2019 10 08.48560 08 08 34.49 +50 28 25.5    ~A8C7 21.3 GVNEOCPG96
     C14FJD2  C2019 10 08.49005 08 08 35.80 +50 28 27.9    ~A8C7 21.1 GVNEOCPG96
     C14FJD2 KC2019 10 09cvCTdAstrometrycjI[0K9predacted;ByY*2Cs'3ICRgt?Ptos(H21
     C14FJD2 KC2019 10 09Y\clickL9+-$0Fheret,EforS7explanationLf4yGGIkT6eM@9vH21
     C14FJD2  C2019 10 09.50260 08 13 35.55 +50 36 35.1    ~A9CM 22.1 GVNEOCPI52
     C14FJD2  C2019 10 09.50563 08 13 36.46 +50 36 36.8    ~A9CM 20.9 GVNEOCPI52
     C14FJD2  C2019 10 09.50785 08 13 37.16 +50 36 38.4    ~A9CM 22.2 GVNEOCPI52
     C14FJD2  C2019 10 11.45472 08 23 13.59 +50 50 38.2    ~ABBb       VNEOCPI52
     C14FJD2  C2019 10 11.46723 08 23 17.33 +50 50 44.7    ~ABBb       VNEOCPI52

Station data:
(G96) Mt. Lemmon Survey  (N32.442754 W110.788720)  US/Arizona.  Observers T.
   A. Pruyne, B. M. Africano, E. J. Christensen, G. A. Farneth, D. C. Fuls,
   A. R. Gibbs, A. D. Grauer, H. Groeller, J. A. Johnson, R. A. Kowalski, S.
   M. Larson, G. J. Leonard, D. Rankin, R. L. Seaman, F. C. Shelly. 1.5-m
   reflector + 10K CCD.
(H21) Astronomical Research Observatory, Westfield  (N39.483057 W87.968270)
   US/Illinois. 0.76-m f/3.0 astrograph + CCD.
(I52) Steward Observatory, Mt. Lemmon Station  (N32.442547 W110.788920)
   US/Arizona.  Observers T. A. Pruyne, B. M. Africano, E. J. Christensen, G.
   A. Farneth, D. C. Fuls, A. R. Gibbs, A. D. Grauer, H. Groeller, J. A.
   Johnson, R. A. Kowalski, S. M. Larson, G. J. Leonard, D. Rankin, R. L.
   Seaman, F. C. Shelly. 1.0-m reflector + CCD.

Orbital elements:  C14FJD2
   Perihelion 2019 Oct 18.580404 +/- 0.287 TT = 13:55:46 (JD 2458775.080404)
Epoch 2019 Oct 11.0 TT = JDT 2458767.5   Earth MOID: 0.6674   AutoNEOCP
M 358.80001326 +/- 0.39             (J2000 ecliptic)
n   0.15830115 +/- 0.0525           Peri.   64.34400 +/- 0.41
a   3.38438676 +/- 0.711            Node    12.37606 +/- 1.4
e   0.5603969 +/- 0.0893            Incl.   29.08232 +/- 0.47
P   6.23                   H 18.8   G  0.15   U 10.8  
q 1.48778668 +/- 0.0293    Q 5.28098685 +/- 1.85
From 18 observations 2019 Oct. 6-11; mean residual 0".36
Residuals in arcseconds: 
191006 G96  .38+  .22+    191006 I52  .15-  .25-    191009 H21  .30+  .38+    
191006 G96  .38+  .13-    191006 I52  .69-  .05-    191009 I52  .65-  .67-    
191006 G96  .17-  .02+    191008 G96  .33+  .01-    191009 I52  .43-  .43-    
191006 G96  .19-  .36+    191008 G96  .08+  .04-    191009 I52  .04+  .11+    
191006 I52  .05-  .64-    191008 G96  .14+  .06+    191011 I52  .29-  .61-    
191006 I52  .38+  .46+    191009 H21  .11+  .45+    191011 I52  .39+  .61+    

Ephemerides (geocentric):
Date (UTC) HH   RA              Dec         delta   r     elong  mag " sig PA
---- -- -- --  -------------   -----------  ------ ------ -----  --- ---- ---
2019 10 15 22  08 45 06.848   +51 14 59.97  1.2145 1.4881  84.0 21.7 2.92  40
2019 10 15 23  08 45 19.037   +51 15 10.63  1.2144 1.4880  84.0 21.7 2.96  40
2019 10 16 00  08 45 31.224   +51 15 21.22  1.2143 1.4880  84.0 21.7 3.01  40
2019 10 16 01  08 45 43.409   +51 15 31.77  1.2141 1.4880  84.0 21.7 3.05  40
2019 10 16 02  08 45 55.592   +51 15 42.26  1.2140 1.4880  84.0 21.7 3.10  41
2019 10 16 03  08 46 07.773   +51 15 52.69  1.2139 1.4880  84.0 21.7 3.15  41
2019 10 16 04  08 46 19.952   +51 16 03.07  1.2138 1.4880  84.0 21.7 3.19  41
2019 10 16 05  08 46 32.129   +51 16 13.40  1.2136 1.4880  84.0 21.7 3.24  41
2019 10 16 06  08 46 44.304   +51 16 23.67  1.2135 1.4880  84.0 21.7 3.29  41
2019 10 16 07  08 46 56.478   +51 16 33.89  1.2134 1.4880  84.0 21.7 3.33  41
2019 10 16 08  08 47 08.649   +51 16 44.06  1.2133 1.4880  84.0 21.7 3.38  41
2019 10 16 09  08 47 20.818   +51 16 54.17  1.2131 1.4880  84.0 21.7 3.43  42
2019 10 16 10  08 47 32.985   +51 17 04.23  1.2130 1.4880  84.0 21.7 3.48  42
2019 10 16 11  08 47 45.150   +51 17 14.23  1.2129 1.4880  84.0 21.7 3.53  42
2019 10 16 12  08 47 57.313   +51 17 24.18  1.2128 1.4879  84.0 21.7 3.58  42
2019 10 16 13  08 48 09.475   +51 17 34.07  1.2126 1.4879  84.1 21.7 3.63  42
2019 10 16 14  08 48 21.634   +51 17 43.92  1.2125 1.4879  84.1 21.7 3.68  42
2019 10 16 15  08 48 33.791   +51 17 53.71  1.2124 1.4879  84.1 21.7 3.73  42
2019 10 16 16  08 48 45.946   +51 18 03.44  1.2123 1.4879  84.1 21.7 3.78  43
2019 10 16 17  08 48 58.098   +51 18 13.12  1.2121 1.4879  84.1 21.7 3.83  43
2019 10 16 18  08 49 10.249   +51 18 22.75  1.2120 1.4879  84.1 21.7 3.88  43
2019 10 16 19  08 49 22.398   +51 18 32.32  1.2119 1.4879  84.1 21.7 3.94  43
2019 10 16 20  08 49 34.544   +51 18 41.84  1.2118 1.4879  84.1 21.7 3.99  43
2019 10 16 21  08 49 46.688   +51 18 51.31  1.2117 1.4879  84.1 21.7 4.04  43
2019 10 16 22  08 49 58.831   +51 19 00.72  1.2115 1.4879  84.1 21.7 4.10  43
2019 10 16 23  08 50 10.971   +51 19 10.08  1.2114 1.4879  84.1 21.7 4.15  43
2019 10 17 00  08 50 23.108   +51 19 19.39  1.2113 1.4879  84.1 21.7 4.21  44
2019 10 17 01  08 50 35.244   +51 19 28.64  1.2112 1.4879  84.1 21.7 4.26  44
2019 10 17 02  08 50 47.377   +51 19 37.84  1.2110 1.4879  84.1 21.7 4.32  44
2019 10 17 03  08 50 59.509   +51 19 46.99  1.2109 1.4879  84.1 21.7 4.37  44
2019 10 17 04  08 51 11.638   +51 19 56.09  1.2108 1.4879  84.2 21.7 4.43  44
2019 10 17 05  08 51 23.764   +51 20 05.13  1.2107 1.4879  84.2 21.7 4.49  44
2019 10 17 06  08 51 35.889   +51 20 14.11  1.2106 1.4879  84.2 21.7 4.54  44
2019 10 17 07  08 51 48.011   +51 20 23.05  1.2104 1.4878  84.2 21.7 4.60  45
2019 10 17 08  08 52 00.131   +51 20 31.93  1.2103 1.4878  84.2 21.7 4.66  45
2019 10 17 09  08 52 12.249   +51 20 40.76  1.2102 1.4878  84.2 21.7 4.72  45
2019 10 17 10  08 52 24.364   +51 20 49.53  1.2101 1.4878  84.2 21.7 4.78  45
2019 10 17 11  08 52 36.478   +51 20 58.26  1.2100 1.4878  84.2 21.7 4.84  45
2019 10 17 12  08 52 48.588   +51 21 06.93  1.2098 1.4878  84.2 21.7 4.90  45
2019 10 17 13  08 53 00.697   +51 21 15.54  1.2097 1.4878  84.2 21.7 4.96  45
2019 10 17 14  08 53 12.803   +51 21 24.11  1.2096 1.4878  84.2 21.7 5.02  45
2019 10 17 15  08 53 24.907   +51 21 32.62  1.2095 1.4878  84.2 21.7 5.08  46
2019 10 17 16  08 53 37.008   +51 21 41.08  1.2094 1.4878  84.2 21.7 5.15  46
2019 10 17 17  08 53 49.108   +51 21 49.49  1.2092 1.4878  84.2 21.7 5.21  46
2019 10 17 18  08 54 01.204   +51 21 57.84  1.2091 1.4878  84.2 21.7 5.27  46
2019 10 17 19  08 54 13.299   +51 22 06.14  1.2090 1.4878  84.3 21.7 5.34  46
2019 10 17 20  08 54 25.391   +51 22 14.39  1.2089 1.4878  84.3 21.7 5.40  46
2019 10 17 21  08 54 37.480   +51 22 22.59  1.2088 1.4878  84.3 21.7 5.46  46